RH
16 16 17 18 20 21 21 20 20 20 20 19 18 16 15 14 14 13 12 11 10 9 9 9 8 8 8 7 6 6 5 5 4 4 5 7 9 10 10 9 10 12 30
18 19 20 21 22 23 23 21 22 24 23 21 18 17 16 15 14 13 12 12 11 11 12 11 11 11 10 9 8 7 6 6 5 4 4 4 3 4 6 9 10 9 10
23 23 25 26 26 26 24 25 27 27 25 22 20 19 18 17 16 15 14 14 15 15 15 14 14 12 9 7 6 5 5 4 3 3 3 3 3 3 3 3 5 9 11
24 23 27 31 33 33 33 34 32 30 27 24 22 20 20 18 18 19 20 20 19 19 18 17 15 12 9 6 5 4 4 4 3 3 2 2 2 2 3 2 2 3 5
22 29 33 33 34 35 36 35 34 32 28 24 23 21 21 24 26 27 27 27 26 24 23 22 20 16 11 9 8 7 6 5 4 3 3 2 2 2 2 2 2 2 2
22 24 28 34 38 41 40 38 35 30 26 24 24 27 30 32 33 33 33 33 33 32 31 29 25 19 18 16 13 10 8 7 6 5 4 3 3 2 2 2 1 2 1
22 26 36 48 50 46 43 36 31 28 27 28 31 35 37 38 39 39 39 37 36 37 37 36 31 26 25 22 19 14 12 10 8 7 6 5 4 3 3 2 2 2 1
27 42 56 55 52 46 36 30 29 30 35 40 44 46 48 48 46 44 41 39 41 42 49 46 43 44 37 29 28 20 17 12 9 8 8 8 7 6 5 4 3 2 2
37 49 55 55 43 35 33 35 40 46 50 52 55 54 54 52 50 45 41 42 50 55 63 61 52 49 50 41 39 36 28 14 8 7 7 8 9 10 10 9 7 5 3
40 45 51 45 38 39 44 50 55 60 62 63 61 59 56 53 48 44 41 45 55 62 64 68 63 54 60 54 45 48 37 18 8 6 7 8 6 6 5 5 6 9 8
46 47 42 41 46 54 60 65 68 71 71 69 65 60 54 49 48 49 47 44 43 47 52 57 61 60 68 61 55 55 51 23 9 7 8 9 7 7 7 6 6 6 7
39 43 49 58 66 70 75 77 77 75 70 66 63 62 59 56 48 42 38 34 30 38 48 55 61 71 67 68 66 65 62 30 12 9 9 11 10 9 10 10 9 11 13
53 63 72 80 86 89 90 85 78 71 72 72 72 66 60 55 50 42 35 35 36 40 49 58 49 44 56 77 82 82 60 38 18 12 12 12 11 9 11 11 11 11 13
72 81 94 95 94 90 77 68 71 74 73 70 63 55 48 43 38 34 33 35 40 48 59 62 63 75 89 96 93 74 56 35 21 16 14 12 14 14 15 16 14 12 10
97 98 95 84 68 63 66 68 70 67 63 58 52 45 39 37 38 42 47 51 58 70 80 82 87 91 96 96 79 65 49 35 26 22 19 19 22 22 21 16 14 13 22
92 71 53 46 48 54 56 58 59 58 51 46 42 41 40 44 49 51 52 56 63 73 80 86 89 94 88 78 71 61 48 41 34 27 27 28 26 23 16 13 16 33 54
53 47 46 48 51 52 54 53 48 44 42 42 42 48 55 55 54 53 57 63 68 73 81 89 93 91 82 75 70 60 51 46 42 36 34 30 27 22 18 15 27 43 58
47 44 39 29 33 39 42 46 48 48 49 49 52 59 63 62 59 54 56 65 74 77 83 87 92 94 95 81 69 63 60 52 43 41 37 36 30 24 21 25 37 49 60
30 24 24 23 24 29 37 40 41 45 48 50 56 65 68 64 61 56 58 65 74 81 85 87 88 86 78 78 74 70 62 52 45 41 43 41 34 26 26 44 51 50 60
22 23 24 23 22 21 21 20 20 22 24 35 45 52 57 58 60 63 64 65 67 73 82 83 84 80 69 70 72 69 61 48 43 40 45 43 34 29 36 78 82 51 62
44 46 46 45 46 46 42 34 27 23 26 28 29 30 37 46 54 60 66 69 70 71 70 74 75 73 70 67 67 62 61 58 55 54 49 42 34 38 47 56 57 65 85
59 62 61 60 62 62 61 59 57 49 36 30 28 29 34 38 42 51 59 67 71 71 69 69 67 66 66 67 63 62 64 66 65 55 46 38 41 49 55 92 100 100 100
52 56 58 57 64 72 74 72 71 71 66 53 37 32 36 41 44 46 50 57 66 69 67 68 65 63 69 68 71 70 67 66 64 55 48 49 50 62 58 82 92 89 82
59 59 57 53 54 68 78 78 79 79 79 76 66 47 38 39 45 52 53 56 58 62 66 66 67 68 67 69 71 69 69 71 67 63 61 59 81 100 100 100 88 87 92
73 72 69 67 64 67 68 79 84 88 87 87 83 75 57 43 46 52 57 59 59 62 60 64 70 69 65 67 74 74 70 61 66 90 84 64 80 82 80 84 92 89 89
86 84 84 80 73 72 72 79 90 98 98 94 89 85 80 64 47 50 55 68 66 65 65 65 68 64 64 66 89 77 65 65 60 64 58 58 77 89 95 95 86 86 94
Wind_Speed
29 30 30 30 30 30 31 31 31 31 31 32 32 33 33 32 32 31 32 31 31 33 36 38 40 43 45 47 48 48 49 51 52 52 50 49 49 49 49 50 49 47 48
32 32 32 32 32 32 31 31 31 30 30 30 30 31 31 32 33 33 33 34 36 40 43 44 45 46 47 48 48 49 49 51 54 54 56 54 48 50 52 53 53 53 51
35 34 33 34 34 33 32 30 29 29 29 29 30 30 31 31 32 33 35 38 42 44 46 48 51 52 51 49 47 45 44 44 45 48 49 52 54 53 49 52 54 57 55
38 37 36 34 33 31 29 29 28 29 29 30 30 30 31 32 34 36 40 43 45 47 49 52 54 55 54 53 50 47 45 43 42 42 44 45 49 51 55 48 48 54 57
37 35 34 34 34 32 30 29 29 29 28 29 30 32 33 35 38 40 42 44 46 47 50 53 55 56 54 50 48 46 45 45 43 42 42 41 43 47 53 57 49 48 52
28 31 33 33 32 31 30 29 28 28 28 30 32 34 36 39 41 43 44 45 47 49 50 49 47 44 42 41 41 41 41 41 41 41 42 43 44 43 48 54 57 54 50
25 27 28 29 30 29 28 27 28 29 31 33 36 39 41 42 44 46 47 48 49 49 47 44 40 38 37 36 36 36 35 36 38 38 39 40 42 46 47 51 55 58 56
26 25 27 29 28 27 27 29 31 32 34 35 37 39 43 45 47 50 50 51 49 46 44 42 39 38 38 38 36 34 35 35 34 34 36 37 38 42 45 50 55 61 61
23 25 27 27 27 28 30 31 32 33 35 38 41 44 48 49 52 53 53 50 47 45 44 43 42 41 41 40 38 37 36 36 35 34 33 34 35 37 41 44 48 55 64
27 28 28 28 29 30 31 32 34 37 41 45 48 50 52 54 55 54 49 46 45 45 45 45 44 43 42 42 42 40 40 38 36 34 32 33 35 37 40 43 46 49 55
26 28 30 31 30 31 33 37 41 45 50 53 55 55 55 54 49 46 44 45 45 45 46 47 46 46 44 45 45 43 43 42 38 37 37 36 38 38 40 43 47 50 51
26 29 29 30 31 36 41 47 51 55 57 57 53 49 46 45 45 46 47 49 49 49 49 49 49 48 49 48 47 45 45 43 41 40 39 38 40 41 43 45 46 49 51
28 28 29 35 42 49 54 56 56 53 49 46 45 44 45 47 49 49 50 51 51 51 49 50 49 49 48 47 46 44 43 43 41 40 39 39 41 42 44 46 47 48 51
32 38 46 51 52 53 51 48 45 45 45 46 46 45 47 47 48 48 48 49 49 48 48 48 46 43 42 42 41 41 41 41 39 39 39 39 41 43 45 47 49 51 52
46 49 50 48 45 44 45 45 44 44 46 47 46 44 45 46 46 46 45 44 43 43 43 43 42 42 40 40 39 39 39 39 38 38 39 40 41 43 46 48 50 49 49
45 42 41 42 44 46 47 47 46 46 48 48 47 47 47 47 46 44 43 42 41 40 40 39 39 39 38 38 38 39 39 38 38 39 39 41 41 43 45 47 47 46 46
41 42 41 42 46 49 51 51 51 51 51 50 49 48 47 47 45 44 43 42 42 41 40 39 38 38 38 38 38 38 38 39 39 40 40 42 43 45 46 46 45 44 43
41 44 51 54 51 50 49 49 50 50 50 50 48 48 47 47 46 45 44 43 42 41 40 39 38 38 38 38 38 38 39 40 39 40 42 44 45 45 46 45 44 42 41
51 48 47 47 48 48 48 51 52 51 51 49 48 47 48 47 47 46 44 44 43 42 40 39 39 38 37 37 38 39 40 40 41 42 43 45 46 44 43 43 42 42 42
42 42 42 43 44 43 46 48 49 49 48 47 48 48 47 47 47 46 45 45 45 44 42 40 40 39 39 38 38 39 40 42 43 43 43 44 45 44 42 37 39 42 40
40 41 43 44 43 42 43 46 46 47 45 46 47 46 45 45 45 45 44 44 44 44 43 42 41 40 39 38 38 39 41 41 42 43 44 43 42 41 39 38 36 35 37
40 40 43 44 43 42 43 44 44 41 43 44 46 45 43 43 43 43 42 41 41 43 42 42 40 39 38 37 38 39 39 38 41 43 42 41 39 36 34 32 34 35 37
40 39 42 43 41 40 42 45 41 42 42 43 43 42 41 41 41 42 40 40 39 40 40 40 39 37 35 36 36 37 37 37 38 40 41 38 37 34 33 32 35 36 39
39 39 41 41 41 38 40 42 41 41 42 41 40 40 40 40 40 39 39 38 38 38 38 37 36 35 34 34 34 35 35 34 37 37 36 35 32 30 33 36 37 36 37
41 41 41 41 41 40 40 39 39 41 42 41 40 39 38 38 38 37 36 36 35 37 36 35 34 34 33 31 32 33 33 33 31 29 31 30 31 34 34 34 34 34 36
44 43 42 43 42 41 40 39 38 39 41 41 40 38 38 36 35 36 34 33 34 34 34 33 33 33 31 28 29 30 31 31 31 30 28 32 33 34 33 34 35 35 36
Wind_Direction
258 259 258 259 259 259 261 263 264 265 265 266 266 266 266 268 269 270 272 273 275 279 283 286 289 290 290 287 284 281 279 276 273 270 265 261 260 259 260 260 259 256 253
263 261 260 259 259 261 263 265 265 265 264 263 262 264 266 268 270 271 273 277 281 284 286 288 288 290 291 290 288 285 282 281 278 275 273 267 256 259 259 258 257 257 254
259 256 254 253 256 258 261 261 261 261 261 261 263 264 265 267 271 274 277 280 283 286 288 291 295 299 300 299 295 290 285 283 281 280 278 275 269 259 249 253 254 256 256
257 253 251 252 254 256 257 257 257 257 258 259 260 262 265 268 272 277 282 285 287 290 294 298 302 305 307 306 303 300 296 291 287 284 285 282 279 275 264 250 248 251 251
250 250 251 252 254 256 258 258 258 257 257 259 262 266 271 277 283 288 291 293 297 301 305 309 311 311 310 308 305 304 303 302 299 295 289 284 281 282 280 273 256 248 249
252 247 246 248 250 252 254 256 257 258 261 265 271 277 283 287 290 295 298 302 306 309 310 310 309 307 305 304 303 303 302 302 302 301 298 294 291 284 279 276 276 268 252
249 245 243 243 245 250 253 252 252 256 261 268 274 280 285 291 295 298 302 305 306 306 306 303 299 297 298 298 299 299 300 301 301 300 297 295 293 290 288 285 282 278 269
239 233 232 239 245 247 245 246 252 259 266 275 282 289 293 297 299 301 302 303 302 299 296 296 291 291 291 291 292 292 294 294 296 296 295 293 291 290 289 287 287 284 280
229 230 235 241 241 239 244 251 259 267 274 281 289 292 297 298 300 300 300 298 295 291 288 290 288 288 286 285 285 286 287 287 287 288 289 289 289 289 288 287 287 287 287
226 232 236 238 239 244 250 259 267 278 284 289 294 295 297 298 299 298 297 293 290 286 284 284 283 284 282 282 281 282 282 281 280 280 283 288 292 293 292 289 286 285 285
230 231 233 237 246 255 264 273 282 288 292 295 296 298 297 296 293 291 290 289 288 286 283 282 280 280 278 280 280 279 277 275 274 275 280 284 288 293 298 296 289 285 283
236 240 244 251 260 271 280 286 290 292 293 294 293 292 291 288 288 287 288 288 286 283 282 281 280 279 279 278 277 276 273 271 270 273 278 283 288 294 297 296 292 287 285
243 246 258 272 280 285 288 289 290 290 288 287 287 287 286 287 288 287 287 286 285 283 282 280 281 280 278 275 273 271 269 268 269 273 277 283 287 291 293 292 291 289 286
251 262 275 282 285 286 287 286 286 286 287 286 287 287 287 287 288 288 287 286 285 283 281 280 280 280 277 274 272 269 267 267 269 272 276 281 286 289 289 288 289 288 287
271 276 281 284 284 285 286 286 285 285 285 285 286 288 288 288 288 288 288 288 288 286 283 280 278 277 274 271 269 268 268 269 270 273 277 281 285 288 288 290 290 290 288
282 283 285 287 289 289 289 287 287 286 286 287 288 289 289 288 287 288 289 291 289 287 282 279 277 274 271 270 270 270 270 271 273 276 280 284 286 287 287 288 286 285 286
283 287 289 289 289 289 288 289 289 289 288 288 289 288 287 286 287 287 288 288 287 286 284 280 276 274 272 271 270 270 272 273 276 281 284 285 286 287 287 287 284 282 282
286 288 290 291 290 289 289 289 289 289 289 290 291 289 287 286 285 285 285 285 284 284 283 279 276 273 271 271 271 271 272 274 278 281 283 285 286 287 289 286 282 280 279
286 287 288 288 287 287 287 286 285 286 285 287 285 284 283 283 283 283 283 283 282 281 280 279 276 273 271 271 272 273 274 277 279 281 284 285 286 287 286 283 282 279 279
290 291 290 289 288 289 287 285 285 284 285 284 282 280 281 281 281 281 281 280 280 279 278 276 276 275 275 274 274 274 276 277 280 282 283 282 285 286 284 283 279 279 283
295 294 292 291 293 292 291 289 288 288 288 284 281 280 280 281 280 279 279 278 278 278 278 277 276 275 275 274 275 276 278 281 283 283 282 283 284 283 280 280 282 285 288
293 292 290 291 291 291 289 288 288 292 287 285 283 284 283 280 279 279 279 279 278 277 277 277 276 276 276 276 275 276 278 281 283 283 284 284 284 283 284 285 281 280 279
298 296 293 292 292 292 290 288 291 287 286 286 286 285 283 281 280 279 279 277 277 278 277 276 276 275 274 273 274 276 278 280 281 281 283 285 285 284 283 282 280 280 282
300 300 298 298 297 295 290 289 289 287 285 285 285 284 282 281 280 280 279 278 278 277 277 276 277 275 272 272 274 275 277 277 276 278 281 282 284 278 274 277 282 284 286
299 298 299 300 299 298 295 293 290 288 286 284 283 284 285 282 280 280 279 278 277 276 276 275 275 275 273 273 275 276 280 279 282 286 282 279 273 276 282 284 284 287 289
297 297 298 298 300 300 299 295 291 288 285 284 284 284 285 285 282 279 276 276 278 275 274 275 275 274 275 273 272 272 276 278 281 283 274 273 279 283 285 287 289 291 292